{"data":{"norad_id":62556,"epoch":"2026-05-25T01:59:40.289280Z","epoch_age_seconds":61105,"freshness":"FRESH","line1":"1 62556U 25006C   26145.08310520  .00207306  00000+0  15769-2 0  9991","line2":"2 62556  43.0011  39.7307 0001938 263.3914  96.6733 15.70872737 78616","mean_motion":15.70872737,"eccentricity":0.0001938,"inclination_deg":43.0011,"raan_deg":39.7307,"arg_perigee_deg":263.3914,"mean_anomaly_deg":96.6733,"bstar":0.0015769,"rev_number":7861,"period_min":91.668788061728,"perigee_km":355.09634116043,"apogee_km":357.70664828098,"semimajor_km":6734.5384947207,"source":"CELESTRAK","updated_at":"2026-05-25T13:38:19.706828Z"}}